This is the latest recevied weather packets stored in our database for station/object K4AVM-13. If no packets are shown the sender has not sent any weather packets the latest 10 day(s).
| Time | Temp. | Humidity | Pressure | Rain* | Wind** | Luminosity | Snow |
|---|---|---|---|---|---|---|---|
| 1777492117 | 20.56° C | 75% | 1010.9 hPa | 0 mm | - | 199 W/m² | - |
| 1777491813 | 20.56° C | 75% | 1011.1 hPa | 0 mm | - | 176 W/m² | - |
| 1777491510 | 20.56° C | 76% | 1011.1 hPa | 0 mm | - | 185 W/m² | - |
| 1777491208 | 20.56° C | 75% | 1011.3 hPa | 0 mm | - | 144 W/m² | - |
| 1777490903 | 21.11° C | 75% | 1011.3 hPa | 0 mm | - | 161 W/m² | - |
| 1777490600 | 20.56° C | 75% | 1011.6 hPa | 0 mm | - | 167 W/m² | - |
| 1777490296 | 20.56° C | 74% | 1011.6 hPa | 0 mm | - | 189 W/m² | - |
| 1777489994 | 20.56° C | 75% | 1011.7 hPa | 0 mm | - | 215 W/m² | - |
| 1777489691 | 20.56° C | 75% | 1011.8 hPa | 0 mm | - | 202 W/m² | - |
| 1777489388 | 20.56° C | 74% | 1011.9 hPa | 0 mm | - | 178 W/m² | - |
| 1777489084 | 20.56° C | 74% | 1012.1 hPa | 0 mm | - | 170 W/m² | - |
| 1777488781 | 20.56° C | 74% | 1012.2 hPa | 0 mm | - | 260 W/m² | - |
| 1777488479 | 20.56° C | 74% | 1012.4 hPa | 0 mm | - | 206 W/m² | - |
| 1777488177 | 20.56° C | 74% | 1012.4 hPa | 0 mm | - | 211 W/m² | - |
| 1777487875 | 20° C | 75% | 1012.4 hPa | 0 mm | - | 209 W/m² | - |
| 1777487572 | 20.56° C | 74% | 1012.6 hPa | 0 mm | - | 223 W/m² | - |
| 1777487269 | 20.56° C | 74% | 1012.8 hPa | 0 mm | - | 213 W/m² | - |
| 1777486966 | 20.56° C | 74% | 1012.9 hPa | 0 mm | - | 233 W/m² | - |
| 1777486662 | 20.56° C | 74% | 1012.7 hPa | 0 mm | - | 245 W/m² | - |
| 1777486360 | 20° C | 75% | 1012.9 hPa | 0 mm | - | 264 W/m² | - |
| 1777486058 | 20° C | 74% | 1012.9 hPa | 0 mm | - | 284 W/m² | - |
| 1777485754 | 20° C | 74% | 1013.1 hPa | 0 mm | - | 279 W/m² | - |
| 1777485449 | 20° C | 75% | 1013.2 hPa | 0 mm | - | 285 W/m² | - |
| 1777485146 | 20° C | 74% | 1013.2 hPa | 0 mm | - | 322 W/m² | - |
| 1777484842 | 20° C | 75% | 1013.5 hPa | 0 mm | - | 300 W/m² | - |
* Rain latest hour (hover to see other rain measurements)
** Current wind speed in m/s (hover to see current wind gust speed)